Temp
-6 -6 -6 -6 -6 -6 -6 -6 -6 -6 -6 -6 -6 -7 -7 -7 -7 -7 -7 -7 -7 -7 -7 -7 -7 -7 -7 -7 -7 -7 -7 -7 -8 -8 -8 -8 -8 -8 -8 -8 -8 -8
-6 -6 -6 -6 -6 -6 -6 -6 -6 -6 -6 -6 -6 -6 -6 -6 -6 -6 -6 -6 -7 -7 -7 -7 -7 -7 -7 -7 -7 -7 -7 -7 -7 -8 -8 -8 -8 -8 -8 -8 -8 -8
-6 -6 -6 -6 -6 -6 -6 -6 -6 -6 -6 -6 -6 -6 -6 -6 -6 -6 -6 -6 -6 -7 -7 -7 -7 -7 -7 -7 -7 -7 -7 -7 -7 -7 -8 -8 -8 -8 -8 -8 -8 -8
-6 -6 -6 -6 -6 -6 -6 -6 -6 -6 -6 -6 -6 -6 -6 -6 -6 -6 -6 -6 -6 -7 -7 -7 -7 -7 -7 -7 -7 -7 -7 -7 -7 -7 -7 -8 -8 -8 -8 -8 -8 -8
-6 -6 -6 -6 -6 -6 -6 -6 -6 -6 -6 -6 -6 -6 -6 -6 -6 -6 -6 -6 -7 -7 -7 -7 -7 -7 -7 -7 -7 -7 -7 -7 -7 -7 -7 -8 -8 -8 -8 -8 -8 -8
-6 -6 -6 -6 -6 -6 -6 -6 -6 -6 -6 -6 -6 -6 -6 -6 -6 -6 -6 -6 -7 -7 -7 -7 -7 -7 -7 -7 -7 -7 -7 -7 -7 -7 -7 -7 -8 -8 -8 -8 -8 -8
-6 -6 -6 -6 -6 -6 -6 -6 -6 -6 -6 -6 -6 -6 -6 -6 -6 -6 -6 -6 -7 -7 -7 -7 -7 -7 -7 -7 -7 -7 -7 -7 -7 -7 -7 -7 -7 -7 -8 -8 -8 -8
-6 -6 -6 -6 -6 -6 -6 -6 -6 -6 -6 -6 -6 -6 -7 -7 -7 -7 -7 -7 -7 -6 -7 -7 -7 -7 -7 -7 -7 -7 -7 -7 -7 -7 -7 -7 -7 -7 -7 -7 -7 -7
-6 -6 -6 -6 -6 -6 -6 -6 -6 -6 -6 -6 -6 -7 -7 -8 -7 -8 -8 -7 -7 -7 -6 -7 -7 -7 -7 -7 -7 -7 -7 -7 -7 -7 -7 -7 -7 -7 -7 -7 -7 -7
-6 -6 -6 -6 -6 -6 -6 -6 -6 -6 -7 -7 -7 -8 -8 -8 -8 -8 -8 -8 -7 -7 -7 -6 -7 -7 -7 -7 -7 -7 -7 -7 -7 -7 -7 -7 -7 -7 -7 -7 -7 -8
-6 -6 -6 -6 -6 -6 -6 -6 -6 -6 -7 -7 -8 -8 -8 -8 -8 -8 -8 -7 -7 -7 -7 -7 -6 -7 -7 -7 -7 -7 -7 -7 -7 -7 -7 -7 -7 -7 -7 -8 -8 -8
-6 -6 -6 -6 -6 -6 -6 -6 -6 -6 -7 -7 -7 -8 -8 -8 -8 -8 -8 -7 -7 -7 -7 -7 -7 -7 -7 -7 -7 -7 -7 -7 -7 -7 -7 -7 -7 -8 -8 -8 -8 -8
-6 -7 -7 -7 -6 -6 -6 -6 -6 -7 -7 -7 -7 -7 -7 -8 -8 -8 -7 -7 -7 -7 -7 -7 -7 -7 -7 -7 -6 -6 -7 -7 -7 -7 -7 -7 -7 -8 -8 -8 -8 -8
-6 -6 -6 -7 -7 -7 -6 -6 -7 -7 -7 -7 -7 -7 -7 -7 -7 -7 -7 -7 -7 -7 -7 -7 -7 -7 -7 -7 -7 -6 -6 -7 -7 -7 -7 -7 -8 -8 -8 -7 -8 -8
-6 -6 -6 -6 -6 -6 -6 -6 -7 -7 -7 -7 -7 -7 -7 -7 -7 -7 -7 -7 -7 -7 -8 -7 -7 -7 -7 -7 -7 -7 -7 -7 -7 -7 -7 -7 -7 -8 -8 -8 -8 -8
-6 -6 -6 -6 -6 -6 -6 -6 -6 -6 -7 -7 -7 -7 -7 -7 -7 -7 -7 -7 -7 -7 -7 -7 -7 -7 -7 -7 -7 -7 -7 -7 -7 -7 -7 -7 -7 -7 -8 -8 -8 -8
-6 -6 -6 -6 -6 -6 -6 -6 -6 -6 -6 -6 -6 -6 -6 -6 -6 -7 -7 -7 -7 -7 -7 -7 -7 -7 -7 -7 -7 -7 -7 -7 -7 -7 -7 -7 -7 -7 -7 -7 -8 -8
-7 -7 -6 -6 -6 -6 -6 -6 -6 -6 -6 -6 -6 -6 -6 -6 -6 -6 -6 -7 -7 -7 -7 -7 -7 -7 -7 -7 -7 -7 -7 -7 -7 -7 -7 -7 -7 -7 -7 -7 -7 -7
-7 -7 -6 -6 -7 -7 -7 -6 -6 -7 -7 -6 -6 -6 -6 -6 -6 -6 -6 -7 -7 -7 -7 -7 -7 -7 -7 -7 -7 -7 -7 -7 -7 -7 -7 -7 -7 -7 -7 -7 -7 -7
-7 -7 -7 -7 -7 -7 -7 -7 -7 -7 -7 -7 -7 -6 -6 -6 -6 -6 -6 -6 -7 -7 -7 -7 -7 -7 -6 -6 -6 -7 -7 -7 -7 -7 -7 -7 -7 -7 -7 -7 -7 -7
-7 -7 -7 -7 -7 -7 -7 -7 -6 -7 -7 -7 -7 -7 -7 -7 -7 -7 -7 -7 -7 -7 -7 -7 -7 -7 -6 -6 -6 -6 -6 -6 -6 -7 -7 -7 -7 -7 -7 -7 -7 -7
-7 -7 -7 -7 -7 -7 -7 -7 -7 -7 -7 -7 -7 -7 -7 -7 -7 -7 -7 -7 -7 -7 -7 -7 -7 -7 -7 -7 -7 -6 -6 -6 -6 -7 -7 -7 -7 -7 -7 -7 -7 -7
-7 -7 -7 -7 -6 -7 -7 -7 -7 -7 -7 -7 -7 -7 -7 -7 -7 -7 -7 -7 -7 -7 -7 -7 -7 -7 -7 -7 -7 -7 -7 -7 -7 -7 -7 -7 -7 -7 -7 -7 -7 -7
-7 -7 -7 -7 -7 -7 -7 -7 -7 -7 -7 -7 -7 -7 -7 -7 -7 -7 -7 -7 -7 -7 -7 -7 -7 -7 -7 -7 -7 -7 -7 -7 -7 -7 -7 -7 -7 -7 -7 -7 -7 -7
-7 -7 -7 -7 -7 -7 -7 -7 -7 -7 -7 -7 -7 -7 -7 -7 -7 -7 -7 -7 -7 -8 -7 -7 -7 -7 -7 -8 -8 -8 -7 -7 -7 -7 -7 -7 -7 -7 -7 -7 -7 -7
-7 -7 -7 -7 -7 -7 -7 -7 -7 -7 -7 -7 -7 -7 -7 -7 -7 -7 -7 -7 -8 -8 -8 -8 -8 -8 -8 -8 -8 -8 -8 -8 -7 -7 -7 -7 -7 -7 -8 -8 -7 -7
Height
5936 5938 5939 5940 5941 5942 5944 5945 5946 5946 5946 5947 5947 5948 5948 5949 5949 5950 5950 5951 5951 5952 5952 5952 5951 5951 5950 5950 5950 5949 5949 5949 5949 5949 5949 5949 5949 5950 5950 5950 5950 5950
5936 5937 5939 5940 5941 5942 5944 5945 5946 5947 5948 5949 5949 5949 5950 5950 5951 5951 5951 5951 5952 5952 5952 5951 5951 5950 5949 5948 5949 5949 5949 5949 5949 5949 5949 5949 5949 5950 5950 5950 5950 5951
5935 5936 5938 5939 5940 5942 5943 5944 5945 5947 5948 5949 5949 5949 5950 5950 5951 5951 5951 5951 5951 5951 5951 5950 5950 5949 5948 5948 5948 5948 5948 5949 5949 5949 5949 5949 5949 5950 5950 5950 5951 5951
5934 5935 5936 5938 5939 5941 5942 5943 5944 5945 5946 5948 5948 5949 5949 5950 5950 5950 5951 5951 5951 5950 5950 5950 5949 5949 5948 5948 5948 5948 5949 5949 5949 5949 5949 5950 5950 5950 5950 5950 5951 5951
5933 5934 5935 5936 5938 5939 5940 5942 5943 5944 5945 5946 5947 5948 5948 5949 5949 5949 5949 5950 5950 5950 5949 5949 5949 5949 5948 5948 5948 5949 5949 5949 5949 5949 5949 5950 5950 5950 5950 5951 5951 5951
5932 5933 5934 5936 5937 5938 5939 5940 5941 5942 5944 5945 5946 5946 5947 5947 5947 5948 5948 5948 5948 5949 5949 5949 5949 5948 5948 5948 5949 5949 5949 5949 5949 5949 5949 5950 5950 5950 5950 5951 5951 5951
5931 5932 5933 5935 5936 5937 5938 5939 5940 5941 5942 5943 5943 5944 5944 5945 5945 5945 5946 5946 5947 5947 5948 5948 5948 5948 5948 5948 5949 5949 5949 5949 5950 5949 5950 5950 5950 5950 5950 5950 5951 5951
5931 5932 5933 5934 5935 5936 5937 5938 5939 5940 5940 5941 5941 5942 5943 5944 5945 5945 5945 5945 5945 5946 5947 5947 5947 5948 5948 5948 5948 5948 5949 5949 5949 5950 5950 5950 5950 5950 5950 5950 5950 5950
5930 5931 5932 5933 5934 5935 5936 5937 5937 5937 5939 5940 5941 5943 5943 5944 5945 5946 5945 5945 5945 5945 5946 5946 5947 5947 5947 5948 5948 5948 5949 5949 5949 5950 5949 5949 5949 5949 5949 5950 5950 5950
5929 5930 5932 5933 5934 5935 5935 5936 5936 5936 5939 5941 5941 5942 5941 5941 5942 5943 5943 5944 5945 5945 5945 5946 5946 5947 5947 5947 5948 5948 5948 5949 5949 5949 5949 5949 5949 5949 5949 5949 5950 5950
5928 5929 5931 5932 5933 5934 5935 5935 5935 5937 5939 5940 5940 5940 5940 5939 5940 5941 5942 5943 5944 5944 5945 5946 5946 5947 5947 5947 5948 5948 5948 5948 5948 5949 5949 5949 5949 5949 5950 5950 5949 5949
5927 5928 5929 5931 5932 5933 5933 5934 5935 5937 5938 5938 5939 5940 5940 5939 5940 5941 5942 5942 5942 5943 5944 5945 5946 5946 5946 5946 5946 5947 5947 5947 5947 5948 5948 5948 5948 5950 5950 5949 5948 5948
5926 5927 5928 5929 5930 5931 5932 5933 5934 5935 5936 5937 5938 5939 5939 5939 5939 5940 5941 5941 5941 5942 5943 5943 5944 5945 5945 5945 5945 5945 5945 5946 5946 5946 5947 5947 5948 5948 5947 5947 5947 5947
5923 5925 5926 5927 5928 5929 5930 5931 5932 5933 5933 5934 5935 5936 5937 5937 5938 5938 5939 5939 5940 5941 5942 5942 5942 5942 5943 5944 5943 5943 5944 5944 5945 5945 5946 5946 5946 5946 5945 5945 5945 5945
5921 5922 5923 5924 5926 5927 5928 5929 5930 5930 5931 5932 5932 5933 5934 5935 5935 5936 5936 5937 5938 5939 5939 5939 5939 5940 5941 5942 5942 5942 5942 5943 5943 5944 5945 5945 5945 5945 5944 5944 5944 5943
5917 5919 5921 5922 5923 5925 5926 5928 5928 5928 5929 5930 5930 5931 5931 5932 5933 5934 5934 5935 5935 5936 5936 5937 5937 5938 5939 5940 5941 5941 5941 5941 5942 5943 5943 5944 5944 5944 5943 5943 5942 5942
5915 5916 5918 5919 5921 5922 5924 5925 5925 5926 5927 5928 5928 5929 5929 5930 5931 5931 5932 5933 5933 5933 5934 5935 5935 5936 5937 5938 5938 5939 5939 5939 5940 5940 5941 5942 5942 5942 5942 5941 5941 5941
5913 5915 5915 5917 5918 5920 5922 5923 5923 5924 5924 5926 5927 5927 5928 5928 5929 5929 5930 5930 5931 5931 5931 5932 5933 5933 5934 5935 5935 5936 5936 5937 5937 5938 5939 5939 5940 5940 5940 5940 5940 5940
5909 5911 5913 5914 5915 5916 5918 5919 5921 5921 5922 5923 5924 5925 5926 5927 5927 5927 5928 5928 5929 5929 5929 5929 5930 5930 5931 5931 5932 5933 5933 5934 5934 5935 5936 5936 5937 5938 5938 5938 5938 5938
5906 5908 5910 5911 5912 5913 5914 5916 5917 5918 5919 5920 5921 5922 5923 5925 5925 5925 5925 5926 5926 5926 5926 5927 5927 5928 5928 5929 5929 5929 5930 5931 5931 5932 5933 5933 5934 5934 5935 5935 5935 5935
5903 5905 5907 5908 5909 5910 5912 5913 5914 5915 5916 5917 5918 5918 5920 5921 5922 5923 5923 5923 5923 5923 5923 5924 5924 5925 5925 5926 5926 5926 5927 5928 5928 5929 5930 5930 5930 5931 5931 5931 5931 5931
5901 5903 5904 5906 5906 5907 5909 5910 5910 5911 5912 5913 5914 5915 5916 5917 5918 5919 5920 5920 5920 5920 5920 5920 5921 5922 5922 5923 5923 5924 5924 5925 5926 5926 5927 5927 5927 5927 5927 5927 5927 5927
5898 5900 5902 5903 5904 5904 5905 5906 5906 5907 5909 5910 5911 5911 5912 5913 5913 5914 5916 5916 5917 5917 5917 5917 5917 5918 5919 5919 5920 5920 5921 5922 5922 5923 5924 5924 5924 5924 5923 5923 5923 5923
5895 5897 5899 5900 5900 5900 5901 5902 5903 5904 5905 5906 5908 5908 5908 5909 5909 5910 5911 5912 5913 5913 5914 5914 5914 5914 5915 5915 5916 5917 5917 5918 5919 5919 5920 5920 5921 5920 5920 5920 5919 5919
5891 5893 5895 5896 5896 5897 5898 5899 5899 5900 5901 5903 5904 5904 5905 5906 5906 5906 5907 5908 5909 5910 5910 5910 5910 5910 5911 5911 5912 5913 5913 5914 5915 5915 5916 5917 5917 5917 5916 5916 5916 5915
5887 5889 5891 5892 5893 5894 5894 5895 5895 5896 5897 5898 5899 5900 5901 5902 5902 5902 5903 5904 5905 5905 5906 5906 5906 5907 5907 5907 5908 5908 5909 5910 5910 5911 5912 5913 5913 5913 5912 5911 5911 5911
Wind_Speed
27 25 24 22 20 18 17 15 14 13 13 12 11 11 10 10 9 8 7 6 5 4 3 2 0 2 1 1 1 2 3 3 3 3 4 5 7 8 9 10 10 10
26 25 23 22 20 19 17 16 14 13 12 12 11 11 10 9 8 6 5 4 3 2 2 1 2 2 2 2 2 1 2 2 3 3 3 4 5 7 7 6 7 7
25 25 24 22 20 19 17 16 15 14 13 12 11 10 9 8 7 6 5 4 3 3 4 4 3 3 1 1 1 1 2 1 2 2 2 3 5 5 5 5 5 4
24 24 24 22 21 19 17 16 15 14 13 12 11 10 9 8 7 6 6 6 6 6 6 5 4 2 0 1 1 2 2 2 1 1 1 2 3 4 4 4 4 4
23 23 24 23 22 20 19 17 16 15 14 13 12 11 10 9 9 9 8 8 8 8 8 6 4 2 0 1 2 2 2 2 2 1 1 0 1 2 3 3 3 4
22 23 23 23 22 21 20 19 18 17 16 15 14 13 12 12 11 11 10 10 9 8 7 5 3 2 1 1 2 2 2 2 2 1 1 0 0 1 2 2 3 4
20 22 22 22 22 21 21 20 19 19 18 17 16 16 15 14 13 12 11 10 8 7 5 4 3 2 3 3 2 2 2 2 2 1 1 0 0 1 2 3 3 3
18 19 20 20 21 21 21 20 20 20 19 19 18 16 15 14 13 12 11 9 7 5 4 3 3 3 4 4 4 4 3 3 2 2 2 2 1 2 2 3 4 5
16 17 17 18 19 19 19 19 19 19 18 18 16 12 12 14 12 11 11 9 7 5 4 4 5 5 5 5 6 6 5 5 4 4 4 4 4 4 4 5 6 6
16 16 16 16 16 17 17 17 18 17 14 14 12 10 13 16 14 12 11 10 9 7 5 5 6 6 6 6 7 6 6 6 6 6 6 6 7 7 7 7 7 8
16 16 16 16 16 15 15 16 15 13 11 12 12 12 14 17 16 14 14 11 9 8 8 7 7 7 7 7 7 7 7 7 7 7 8 8 9 8 8 8 9 9
17 17 16 16 16 15 15 15 13 12 12 12 12 12 13 14 15 16 16 14 11 9 9 9 8 8 9 9 9 9 9 9 9 9 9 10 9 8 9 10 10 10
19 19 18 17 17 17 16 15 13 13 14 13 13 14 15 14 15 16 17 16 14 12 10 9 10 11 12 12 12 11 11 11 10 11 11 11 10 9 10 12 11 11
21 21 20 20 20 20 19 17 16 16 16 16 16 17 17 17 17 17 18 17 16 14 12 11 12 13 14 14 14 13 12 12 12 12 12 12 11 11 13 14 13 13
23 23 23 23 22 22 21 20 20 20 19 19 19 19 18 19 19 19 19 18 17 15 15 14 14 14 15 16 16 15 14 14 14 14 13 13 13 13 14 15 16 16
25 24 24 24 23 23 22 22 23 22 21 21 22 21 21 21 20 21 20 20 19 18 18 17 17 16 17 18 18 17 16 16 16 16 15 14 14 15 16 17 18 18
26 26 25 25 25 24 23 23 24 24 23 23 23 23 23 23 23 23 22 22 22 21 21 20 19 19 19 19 20 19 18 17 17 17 17 17 17 18 18 19 19 19
26 27 27 26 25 25 25 26 26 26 26 26 26 25 24 24 24 23 23 23 23 24 23 23 22 22 21 22 22 21 20 19 19 18 19 20 20 20 21 21 21 22
26 27 28 28 27 27 27 28 28 28 28 28 28 27 26 26 26 25 24 24 25 25 26 25 25 25 25 25 25 24 23 23 22 22 22 23 23 23 23 24 24 24
28 28 28 28 28 29 29 29 29 29 29 29 29 29 28 28 28 28 27 27 27 27 27 27 27 27 27 26 26 26 25 25 24 25 26 26 26 26 25 25 26 26
28 27 27 27 28 28 28 28 29 29 29 29 30 30 30 30 30 30 30 29 29 29 29 29 28 28 28 28 27 27 26 26 25 26 26 27 27 27 27 26 26 27
25 24 25 27 28 28 28 28 29 31 30 29 29 30 30 30 31 31 31 31 31 30 30 30 30 30 30 30 29 28 28 27 27 27 27 27 27 27 27 27 27 27
27 24 24 27 29 29 30 30 30 31 31 30 30 30 31 31 32 33 32 32 31 31 31 31 31 31 31 31 31 30 29 29 29 28 28 28 28 28 28 29 29 29
32 28 27 28 29 30 32 32 32 32 32 32 32 30 29 30 32 34 34 33 31 31 31 31 31 32 32 33 32 31 30 30 29 28 28 28 28 29 30 30 30 30
36 33 32 32 32 32 33 33 34 33 33 33 33 32 29 29 32 35 35 34 33 32 32 32 32 32 33 33 33 33 32 31 30 29 28 28 29 30 31 31 30 31
35 35 35 35 35 35 34 35 36 37 36 36 38 37 34 33 36 37 36 35 34 34 34 34 34 34 35 35 36 36 35 35 34 31 29 29 30 31 33 33 32 32
Wind_Direction
177 177 178 176 174 173 171 170 169 167 167 168 167 166 167 166 167 166 164 163 162 160 164 168 212 327 6 83 107 133 143 152 167 181 181 181 190 197 197 195 199 203
182 183 184 183 181 180 178 175 175 175 174 174 173 173 175 177 179 182 184 187 190 198 229 266 314 332 360 46 55 91 121 146 164 178 189 192 200 208 210 209 211 215
188 188 189 191 190 188 186 184 183 182 183 183 184 185 189 194 199 206 218 239 260 276 291 304 321 335 13 53 46 78 102 126 158 166 183 202 212 216 214 214 218 224
195 195 195 197 198 198 197 195 194 195 195 196 198 202 209 217 227 236 249 268 283 293 302 308 317 328 42 100 91 99 107 120 142 151 169 207 225 229 222 214 215 222
200 202 203 203 204 205 205 206 207 209 210 211 214 220 228 238 248 258 268 278 286 294 302 307 309 310 311 137 128 122 118 118 120 121 131 181 244 244 239 230 222 226
203 206 208 210 211 212 214 215 216 219 222 225 227 232 237 245 253 263 272 280 286 291 295 298 294 275 224 177 160 142 132 131 128 120 112 96 319 291 276 260 242 243
208 209 211 214 216 218 220 222 224 227 230 232 235 237 239 243 249 256 264 270 276 282 283 276 263 239 219 205 195 182 165 162 166 167 163 172 302 318 312 307 295 287
212 213 214 216 219 221 224 227 229 233 235 238 240 242 246 250 254 255 257 259 261 265 261 244 233 222 216 215 214 212 207 203 210 212 215 229 249 274 292 300 306 308
217 218 219 220 220 222 224 227 231 234 237 242 247 251 252 251 251 249 251 263 265 254 239 229 230 226 221 219 219 221 225 228 233 238 243 253 261 268 276 283 290 296
221 223 224 225 225 225 225 226 230 231 234 237 239 242 238 235 234 227 231 257 269 260 248 235 231 234 234 233 228 226 232 238 243 250 255 261 264 266 271 280 288 291
224 226 228 229 230 230 229 231 232 228 226 223 222 227 228 229 232 223 220 242 263 262 260 252 243 242 243 245 245 241 241 243 247 252 256 261 267 272 279 284 287 287
226 229 231 233 235 235 234 236 236 228 224 222 219 223 224 228 235 229 225 238 248 248 252 255 257 257 250 247 248 249 251 251 252 255 257 262 269 276 278 276 276 277
227 229 232 234 237 238 237 237 236 230 226 225 222 221 223 227 233 232 234 241 245 247 251 252 255 257 253 249 246 245 250 253 255 258 260 263 265 263 260 259 261 264
229 229 230 233 235 237 238 235 234 231 226 224 225 224 222 224 229 232 237 243 245 248 250 248 248 252 254 252 246 242 244 247 251 256 259 261 260 258 259 259 260 260
232 231 230 232 234 236 237 236 236 234 229 227 229 229 226 225 228 232 237 242 243 241 243 245 247 249 254 254 250 246 246 246 249 253 255 256 256 257 259 261 263 262
230 232 233 235 236 237 238 239 241 240 236 232 232 231 230 229 229 232 235 239 242 241 242 246 247 249 253 256 256 254 253 252 254 256 256 255 255 256 256 258 262 264
233 234 235 237 239 240 240 240 243 244 242 240 238 237 236 234 233 234 236 238 241 243 245 247 247 247 250 253 255 256 256 255 256 258 259 256 255 257 258 259 262 263
236 238 238 237 239 243 244 243 244 245 246 246 245 244 243 242 241 240 240 240 242 244 246 247 248 249 250 251 253 255 257 257 256 258 259 259 257 257 258 259 261 262
233 238 240 239 238 240 242 243 244 246 247 249 250 250 249 248 248 247 245 243 243 245 246 247 248 250 252 253 253 255 256 256 257 259 261 261 261 261 261 261 262 263
234 237 242 243 242 240 240 241 243 246 249 251 252 254 254 252 251 250 249 248 247 248 249 250 251 253 255 255 256 258 258 258 259 261 262 263 263 264 264 265 266 268
235 240 243 243 244 243 242 243 244 244 245 248 252 254 255 255 254 253 252 252 251 251 251 253 254 255 256 258 258 259 260 260 261 262 263 264 265 265 266 267 268 269
233 242 244 241 242 243 243 246 248 244 242 243 247 251 254 255 256 255 254 254 253 253 253 254 255 256 257 258 258 258 259 260 261 261 262 263 264 266 268 269 270 270
239 245 246 245 245 243 244 249 250 247 243 242 243 247 250 254 256 256 256 256 256 256 256 256 258 258 259 259 258 258 258 258 260 261 262 263 264 266 269 271 273 273
244 244 244 244 244 243 247 253 253 249 245 244 243 241 243 251 255 255 255 257 258 258 258 258 259 259 259 258 258 258 257 257 259 261 263 265 266 267 269 271 273 276
244 244 242 244 247 250 252 255 255 252 249 247 246 242 242 248 252 253 254 256 257 258 258 258 259 258 258 258 258 258 259 259 259 259 262 265 266 267 269 270 271 272
245 245 244 247 251 255 255 255 256 257 255 253 250 247 248 251 252 253 255 255 255 256 257 257 257 256 257 257 258 259 260 260 260 259 260 261 263 265 269 270 272 273